Time,TemperatureF,DewpointF,PressureIn,WindDirection,WindDirectionDegrees,WindSpeedMPH,WindSpeedGustMPH,Humidity,HourlyPrecipIn,Conditions,Clouds,dailyrainin,SoftwareType,DateUTC
2013-02-04 00:00:00,19.9,-2.1,29.29,WNW,287,0.0,0.0,37,0.00,,OVC080,0.00,VWS V14.00,2013-02-04 05:00:00,
2013-02-04 00:01:00,19.9,-2.1,29.29,WNW,287,0.0,0.0,37,0.00,,OVC080,0.00,VWS V14.00,2013-02-04 05:01:00,
2013-02-04 00:02:00,19.9,-2.1,29.29,SE,142,0.0,0.0,37,0.00,,OVC065,0.00,VWS V14.00,2013-02-04 05:02:00,
2013-02-04 00:07:00,20.7,-0.9,29.32,SSE,147,0.0,2.2,38,0.00,,OVC065,0.00,VWS V14.00,2013-02-04 05:07:00,
2013-02-04 00:12:00,20.7,-0.9,29.32,SE,139,0.0,2.7,38,0.00,,OVC065,0.00,VWS V14.00,2013-02-04 05:12:00,
2013-02-04 00:17:00,21.7,0.6,29.32,ESE,123,0.0,2.7,39,0.00,,OVC065,0.00,VWS V14.00,2013-02-04 05:17:00,
2013-02-04 00:22:00,22.3,1.1,29.32,SSE,156,0.0,0.0,39,0.00,,OVC065,0.00,VWS V14.00,2013-02-04 05:22:00,
2013-02-04 00:27:00,22.8,2.7,29.32,ENE,78,2.2,2.7,41,0.00,,OVC065,0.00,VWS V14.00,2013-02-04 05:27:00,
2013-02-04 00:32:00,23.4,3.7,29.32,WNW,297,0.0,2.7,42,0.00,,OVC065,0.00,VWS V14.00,2013-02-04 05:32:00,
2013-02-04 00:37:00,23.4,3.7,29.32,NE,49,0.0,2.7,42,0.00,,OVC065,0.00,VWS V14.00,2013-02-04 05:37:00,
2013-02-04 00:42:00,24.1,3.3,29.32,North,353,0.0,0.0,40,0.00,,OVC065,0.00,VWS V14.00,2013-02-04 05:42:00,
2013-02-04 00:47:00,24.1,3.3,29.32,NNW,332,0.0,2.7,40,0.00,,OVC065,0.00,VWS V14.00,2013-02-04 05:47:00,
2013-02-04 00:52:00,24.4,0.7,29.32,ESE,109,3.6,3.6,35,0.00,,OVC065,0.00,VWS V14.00,2013-02-04 05:52:00,
2013-02-04 00:57:00,24.8,-0.9,29.32,ESE,110,2.7,3.6,32,0.00,,OVC065,0.00,VWS V14.00,2013-02-04 05:57:00,
2013-02-04 01:02:00,24.8,-0.9,29.32,NE,37,0.0,3.6,32,0.00,,OVC060,0.00,VWS V14.00,2013-02-04 06:02:00,
2013-02-04 01:07:00,24.8,-4.4,29.32,NW,313,0.0,3.6,27,0.00,,OVC060,0.00,VWS V14.00,2013-02-04 06:07:00,
2013-02-04 01:12:00,24.6,-4.6,29.32,North,0,2.7,3.6,27,0.00,,OVC060,0.00,VWS V14.00,2013-02-04 06:12:00,
2013-02-04 01:17:00,24.4,-4.7,29.32,WNW,285,2.2,5.8,27,0.00,,OVC060,0.00,VWS V14.00,2013-02-04 06:17:00,
2013-02-04 01:22:00,24.4,-4.7,29.32,NNW,334,5.8,5.8,27,0.00,,OVC060,0.00,VWS V14.00,2013-02-04 06:22:00,
2013-02-04 01:27:00,24.3,-7.3,29.32,West,275,4.9,5.8,24,0.00,,OVC060,0.00,VWS V14.00,2013-02-04 06:27:00,
2013-02-04 01:32:00,24.4,-7.2,29.32,East,84,2.7,5.8,24,0.00,,OVC060,0.00,VWS V14.00,2013-02-04 06:32:00,
2013-02-04 01:37:00,24.3,-7.3,29.32,ENE,59,3.1,5.8,24,0.00,,OVC060,0.00,VWS V14.00,2013-02-04 06:37:00,
2013-02-04 01:42:00,24.3,-7.3,29.32,ESE,103,2.2,2.2,24,0.00,,OVC060,0.00,VWS V14.00,2013-02-04 06:42:00,
2013-02-04 01:48:00,24.3,-7.3,29.32,ENE,76,0.0,3.1,24,0.00,,OVC060,0.00,VWS V14.00,2013-02-04 06:48:00,
2013-02-04 01:53:00,24.1,-9.2,29.32,WNW,282,3.1,3.6,22,0.00,,OVC060,0.00,VWS V14.00,2013-02-04 06:53:00,
2013-02-04 01:58:00,23.9,-9.4,29.32,NW,308,4.0,4.5,22,0.00,,OVC060,0.00,VWS V14.00,2013-02-04 06:58:00,
2013-02-04 02:03:00,23.9,-9.4,29.32,North,349,3.6,4.0,22,0.00,,SCT110,0.00,VWS V14.00,2013-02-04 07:03:00,
2013-02-04 02:08:00,23.7,-9.6,29.32,North,353,2.2,4.0,22,0.00,,SCT110,0.00,VWS V14.00,2013-02-04 07:08:00,
2013-02-04 02:13:00,23.7,-9.6,29.32,NNE,24,0.0,4.0,22,0.00,,SCT110,0.00,VWS V14.00,2013-02-04 07:13:00,
2013-02-04 02:18:00,23.5,-9.7,29.32,East,90,2.7,4.0,22,0.00,,SCT110,0.00,VWS V14.00,2013-02-04 07:18:00,
2013-02-04 02:23:00,23.5,-9.7,29.32,NNW,343,0.0,4.0,22,0.00,,SCT110,0.00,VWS V14.00,2013-02-04 07:23:00,
2013-02-04 02:28:00,23.5,-9.7,29.32,NE,50,2.7,4.0,22,0.00,,SCT110,0.00,VWS V14.00,2013-02-04 07:28:00,
2013-02-04 02:33:00,23.5,-9.7,29.35,East,81,3.1,4.0,22,0.00,,SCT110,0.00,VWS V14.00,2013-02-04 07:33:00,
2013-02-04 02:38:00,23.4,-9.9,29.35,East,82,2.7,4.0,22,0.00,,SCT110,0.00,VWS V14.00,2013-02-04 07:38:00,
2013-02-04 02:43:00,23.2,-10.0,29.35,ESE,119,0.0,3.1,22,0.00,,SCT110,0.00,VWS V14.00,2013-02-04 07:43:00,
2013-02-04 02:48:00,23.2,-10.0,29.35,West,273,3.1,3.1,22,0.00,,SCT110,0.00,VWS V14.00,2013-02-04 07:48:00,
2013-02-04 02:53:00,23.0,-10.2,29.35,ESE,106,2.7,5.8,22,0.00,,SCT110,0.00,VWS V14.00,2013-02-04 07:53:00,
2013-02-04 02:58:00,23.0,-10.2,29.35,NW,310,3.1,5.8,22,0.00,,SCT110,0.00,VWS V14.00,2013-02-04 07:58:00,
2013-02-04 03:03:00,23.0,-10.2,29.35,NNW,344,5.4,5.4,22,0.00,,CLR,0.00,VWS V14.00,2013-02-04 08:03:00,
2013-02-04 03:08:00,22.8,-10.3,29.35,ENE,64,2.7,5.4,22,0.00,,CLR,0.00,VWS V14.00,2013-02-04 08:08:00,
2013-02-04 03:13:00,22.8,-10.3,29.35,SE,145,3.1,5.4,22,0.00,,CLR,0.00,VWS V14.00,2013-02-04 08:13:00,
2013-02-04 03:18:00,22.8,-10.3,29.35,NNE,30,0.0,5.4,22,0.00,,CLR,0.00,VWS V14.00,2013-02-04 08:18:00,
2013-02-04 03:23:00,22.6,-10.5,29.35,NE,37,2.7,3.6,22,0.00,,CLR,0.00,VWS V14.00,2013-02-04 08:23:00,
2013-02-04 03:28:00,22.6,-10.5,29.35,NNE,23,0.0,3.6,22,0.00,,CLR,0.00,VWS V14.00,2013-02-04 08:28:00,
2013-02-04 03:33:00,22.5,-10.6,29.35,NW,323,0.0,3.6,22,0.00,,CLR,0.00,VWS V14.00,2013-02-04 08:33:00,
2013-02-04 03:38:00,22.5,-10.6,29.35,West,279,0.0,3.6,22,0.00,,CLR,0.00,VWS V14.00,2013-02-04 08:38:00,
2013-02-04 03:43:00,22.3,-10.8,29.35,NW,326,0.0,0.0,22,0.00,,CLR,0.00,VWS V14.00,2013-02-04 08:43:00,
2013-02-04 03:48:00,22.3,-10.8,29.35,SSE,168,2.7,4.0,22,0.00,,CLR,0.00,VWS V14.00,2013-02-04 08:48:00,
2013-02-04 03:53:00,22.1,-10.9,29.35,NW,322,3.1,4.0,22,0.00,,CLR,0.00,VWS V14.00,2013-02-04 08:53:00,
2013-02-04 03:58:00,22.1,-10.9,29.35,ENE,63,0.0,4.0,22,0.00,,CLR,0.00,VWS V14.00,2013-02-04 08:58:00,
2013-02-04 04:03:00,21.9,-11.1,29.35,WNW,296,0.0,0.0,22,0.00,,CLR,0.00,VWS V14.00,2013-02-04 09:03:00,
2013-02-04 04:08:00,21.9,-11.1,29.35,NNE,25,2.2,4.0,22,0.00,,CLR,0.00,VWS V14.00,2013-02-04 09:08:00,
2013-02-04 04:13:00,21.9,-11.1,29.35,ESE,108,0.0,4.0,22,0.00,,CLR,0.00,VWS V14.00,2013-02-04 09:13:00,
2013-02-04 04:18:00,21.7,-11.2,29.35,SSE,166,2.2,4.0,22,0.00,,CLR,0.00,VWS V14.00,2013-02-04 09:18:00,
2013-02-04 04:23:00,21.7,-11.2,29.38,NNW,345,0.0,2.7,22,0.00,,CLR,0.00,VWS V14.00,2013-02-04 09:23:00,
2013-02-04 04:28:00,21.6,-11.4,29.38,NNW,329,4.9,6.3,22,0.00,,CLR,0.00,VWS V14.00,2013-02-04 09:28:00,
2013-02-04 04:33:00,21.6,-11.4,29.38,WNW,301,2.2,6.3,22,0.00,,CLR,0.00,VWS V14.00,2013-02-04 09:33:00,
2013-02-04 04:38:00,21.6,-11.4,29.38,WNW,300,2.7,7.2,22,0.00,,CLR,0.00,VWS V14.00,2013-02-04 09:38:00,
2013-02-04 04:43:00,21.4,-11.5,29.38,North,10,3.1,3.1,22,0.00,,CLR,0.00,VWS V14.00,2013-02-04 09:43:00,
2013-02-04 04:48:00,21.4,-11.5,29.38,NNE,31,2.2,3.1,22,0.00,,CLR,0.00,VWS V14.00,2013-02-04 09:48:00,
2013-02-04 04:53:00,21.4,-11.5,29.38,NE,49,2.7,3.1,22,0.00,,CLR,0.00,VWS V14.00,2013-02-04 09:53:00,
2013-02-04 04:58:00,21.4,-11.5,29.38,WNW,293,2.2,3.1,22,0.00,,CLR,0.00,VWS V14.00,2013-02-04 09:58:00,
2013-02-04 05:03:00,21.2,-11.7,29.38,WNW,293,2.2,2.2,22,0.00,,CLR,0.00,VWS V14.00,2013-02-04 10:03:00,
2013-02-04 05:08:00,21.2,-11.7,29.38,NW,304,0.0,2.2,22,0.00,,CLR,0.00,VWS V14.00,2013-02-04 10:08:00,
2013-02-04 05:13:00,21.2,-11.7,29.38,SSE,168,0.0,3.1,22,0.00,,CLR,0.00,VWS V14.00,2013-02-04 10:13:00,
2013-02-04 05:18:00,21.0,-11.9,29.38,ENE,71,0.0,3.1,22,0.00,,CLR,0.00,VWS V14.00,2013-02-04 10:18:00,
2013-02-04 05:23:00,21.2,-11.7,29.38,NE,40,0.0,3.6,22,0.00,,CLR,0.00,VWS V14.00,2013-02-04 10:23:00,
2013-02-04 05:28:00,21.2,-11.7,29.38,NNE,28,0.0,3.6,22,0.00,,CLR,0.00,VWS V14.00,2013-02-04 10:28:00,
2013-02-04 05:33:00,21.0,-11.9,29.41,NW,324,0.0,3.6,22,0.00,,CLR,0.00,VWS V14.00,2013-02-04 10:33:00,
2013-02-04 05:38:00,21.0,-11.9,29.41,ENE,67,2.2,3.6,22,0.00,,CLR,0.00,VWS V14.00,2013-02-04 10:38:00,
2013-02-04 05:43:00,21.0,-11.9,29.41,NE,34,0.0,2.7,22,0.00,,CLR,0.00,VWS V14.00,2013-02-04 10:43:00,
2013-02-04 05:48:00,20.8,-12.0,29.41,ESE,105,0.0,2.7,22,0.00,,CLR,0.00,VWS V14.00,2013-02-04 10:48:00,
2013-02-04 05:53:00,20.7,-12.2,29.41,NE,45,0.0,2.7,22,0.00,,CLR,0.00,VWS V14.00,2013-02-04 10:53:00,
2013-02-04 05:58:00,20.7,-12.2,29.41,NE,45,0.0,2.7,22,0.00,,CLR,0.00,VWS V14.00,2013-02-04 10:58:00,
2013-02-04 06:03:00,20.5,-12.3,29.41,NNW,334,0.0,0.0,22,0.00,,CLR,0.00,VWS V14.00,2013-02-04 11:03:00,
2013-02-04 06:08:00,20.5,-12.3,29.41,WNW,284,2.7,5.4,22,0.00,,CLR,0.00,VWS V14.00,2013-02-04 11:08:00,
2013-02-04 06:13:00,20.5,-12.3,29.41,NE,45,0.0,5.4,22,0.00,,CLR,0.00,VWS V14.00,2013-02-04 11:13:00,
2013-02-04 06:18:00,20.5,-12.3,29.41,NW,309,0.0,5.4,22,0.00,,CLR,0.00,VWS V14.00,2013-02-04 11:18:00,
2013-02-04 06:23:00,20.3,-12.5,29.41,SSE,153,0.0,0.0,22,0.00,,CLR,0.00,VWS V14.00,2013-02-04 11:23:00,
2013-02-04 06:28:00,20.3,-12.5,29.41,WNW,301,0.0,0.0,22,0.00,,CLR,0.00,VWS V14.00,2013-02-04 11:28:00,
2013-02-04 06:33:00,20.3,-12.5,29.41,SE,130,0.0,0.0,22,0.00,,CLR,0.00,VWS V14.00,2013-02-04 11:33:00,
2013-02-04 06:38:00,20.3,-12.5,29.41,SE,133,0.0,0.0,22,0.00,,CLR,0.00,VWS V14.00,2013-02-04 11:38:00,
2013-02-04 06:43:00,20.3,-12.5,29.41,ESE,118,2.7,2.7,22,0.00,,CLR,0.00,VWS V14.00,2013-02-04 11:43:00,
2013-02-04 06:48:00,20.3,-12.5,29.41,SE,127,0.0,2.7,22,0.00,,CLR,0.00,VWS V14.00,2013-02-04 11:48:00,
2013-02-04 06:53:00,20.3,-12.5,29.41,North,0,0.0,2.7,22,0.00,,CLR,0.00,VWS V14.00,2013-02-04 11:53:00,
2013-02-04 06:58:00,20.3,-12.5,29.41,SE,127,3.6,3.6,22,0.00,,CLR,0.00,VWS V14.00,2013-02-04 11:58:00,
2013-02-04 07:04:00,20.5,-12.3,29.44,SE,127,0.0,3.6,22,0.00,,BKN048,0.00,VWS V14.00,2013-02-04 12:04:00,
2013-02-04 07:09:00,20.5,-12.3,29.44,NW,312,0.0,3.6,22,0.00,,BKN048,0.00,VWS V14.00,2013-02-04 12:09:00,
2013-02-04 07:14:00,20.5,-12.3,29.44,SSE,152,0.0,3.6,22,0.00,,BKN048,0.00,VWS V14.00,2013-02-04 12:14:00,
2013-02-04 07:19:00,20.3,-12.5,29.44,SE,137,0.0,3.6,22,0.00,,BKN048,0.00,VWS V14.00,2013-02-04 12:19:00,
2013-02-04 07:24:00,20.3,-12.5,29.44,NE,39,0.0,2.2,22,0.00,,BKN048,0.00,VWS V14.00,2013-02-04 12:24:00,
2013-02-04 07:29:00,20.5,-12.3,29.44,NNE,25,2.2,2.2,22,0.00,,BKN048,0.00,VWS V14.00,2013-02-04 12:29:00,
2013-02-04 07:34:00,20.5,-12.3,29.44,ESE,119,0.0,2.2,22,0.00,,BKN048,0.00,VWS V14.00,2013-02-04 12:34:00,
2013-02-04 07:39:00,20.5,-12.3,29.44,NNW,343,2.2,2.2,22,0.00,,BKN048,0.00,VWS V14.00,2013-02-04 12:39:00,
2013-02-04 07:44:00,20.8,-12.0,29.44,NW,317,5.4,5.4,22,0.00,,BKN048,0.00,VWS V14.00,2013-02-04 12:44:00,
2013-02-04 07:49:00,21.0,-11.9,29.44,SE,127,2.7,5.4,22,0.00,,BKN048,0.00,VWS V14.00,2013-02-04 12:49:00,
2013-02-04 07:54:00,21.2,-11.7,29.44,WNW,296,3.1,5.4,22,0.00,,BKN048,0.00,VWS V14.00,2013-02-04 12:54:00,
2013-02-04 07:59:00,21.4,-11.5,29.44,East,101,3.6,5.8,22,0.00,,BKN048,0.00,VWS V14.00,2013-02-04 12:59:00,
2013-02-04 08:04:00,21.7,-11.2,29.44,NNW,335,3.6,5.4,22,0.00,,CLR,0.00,VWS V14.00,2013-02-04 13:04:00,
2013-02-04 08:09:00,21.7,-11.2,29.44,West,263,3.1,5.4,22,0.00,,CLR,0.00,VWS V14.00,2013-02-04 13:09:00,
2013-02-04 08:14:00,22.3,-10.8,29.44,WNW,302,0.0,5.4,22,0.00,,CLR,0.00,VWS V14.00,2013-02-04 13:14:00,
2013-02-04 08:19:00,22.5,-10.6,29.44,NW,323,3.1,5.4,22,0.00,,CLR,0.00,VWS V14.00,2013-02-04 13:19:00,
2013-02-04 08:24:00,22.5,-10.6,29.44,ESE,119,6.3,6.3,22,0.00,,CLR,0.00,VWS V14.00,2013-02-04 13:24:00,
2013-02-04 08:29:00,22.6,-10.5,29.44,NNW,334,2.7,6.3,22,0.00,,CLR,0.00,VWS V14.00,2013-02-04 13:29:00,
2013-02-04 08:34:00,22.6,-10.5,29.44,SE,141,0.0,6.3,22,0.00,,CLR,0.00,VWS V14.00,2013-02-04 13:34:00,
2013-02-04 08:39:00,22.6,-10.5,29.44,North,2,2.7,6.3,22,0.00,,CLR,0.00,VWS V14.00,2013-02-04 13:39:00,
2013-02-04 08:44:00,22.8,-10.3,29.44,ESE,102,3.1,3.1,22,0.00,,CLR,0.00,VWS V14.00,2013-02-04 13:44:00,
2013-02-04 08:49:00,22.8,-10.3,29.44,NNE,23,0.0,3.1,22,0.00,,CLR,0.00,VWS V14.00,2013-02-04 13:49:00,
2013-02-04 08:54:00,23.2,-10.0,29.44,NW,311,3.1,4.0,22,0.00,,CLR,0.00,VWS V14.00,2013-02-04 13:54:00,
2013-02-04 08:59:00,23.2,-10.0,29.44,NNE,17,6.3,6.3,22,0.00,,CLR,0.00,VWS V14.00,2013-02-04 13:59:00,
2013-02-04 09:04:00,23.5,-9.7,29.47,SSE,167,3.6,5.8,22,0.00,,CLR,0.00,VWS V14.00,2013-02-04 14:04:00,
2013-02-04 09:09:00,23.5,-9.7,29.47,SE,125,3.1,5.8,22,0.00,,CLR,0.00,VWS V14.00,2013-02-04 14:09:00,
2013-02-04 09:14:00,23.5,-9.7,29.47,NNE,25,4.0,5.8,22,0.00,,CLR,0.00,VWS V14.00,2013-02-04 14:14:00,
2013-02-04 09:19:00,23.7,-9.6,29.47,East,91,3.1,5.8,22,0.00,,CLR,0.00,VWS V14.00,2013-02-04 14:19:00,
2013-02-04 09:24:00,23.7,-9.6,29.47,SE,135,3.6,4.9,22,0.00,,CLR,0.00,VWS V14.00,2013-02-04 14:24:00,
2013-02-04 09:29:00,24.4,-8.9,29.47,NE,55,3.6,4.9,22,0.00,,CLR,0.00,VWS V14.00,2013-02-04 14:29:00,
2013-02-04 09:34:00,24.4,-8.9,29.47,ENE,76,0.0,6.3,22,0.00,,CLR,0.00,VWS V14.00,2013-02-04 14:34:00,
2013-02-04 09:39:00,24.4,-8.9,29.47,SSE,160,3.6,6.3,22,0.00,,CLR,0.00,VWS V14.00,2013-02-04 14:39:00,
2013-02-04 09:44:00,24.6,-8.8,29.47,SE,133,0.0,4.0,22,0.00,,CLR,0.00,VWS V14.00,2013-02-04 14:44:00,
2013-02-04 09:49:00,25.0,-9.4,29.47,NNE,25,3.6,4.0,21,0.00,,CLR,0.00,VWS V14.00,2013-02-04 14:49:00,
2013-02-04 09:54:00,25.3,-9.1,29.47,NW,307,2.7,4.0,21,0.00,,CLR,0.00,VWS V14.00,2013-02-04 14:54:00,
2013-02-04 09:59:00,25.3,-9.1,29.47,NNW,337,4.0,5.8,21,0.00,,CLR,0.00,VWS V14.00,2013-02-04 14:59:00,
2013-02-04 10:04:00,25.2,-9.3,29.47,WNW,297,3.1,7.2,21,0.00,,CLR,0.00,VWS V14.00,2013-02-04 15:04:00,
2013-02-04 10:09:00,25.2,-9.3,29.47,West,276,2.2,7.2,21,0.00,,CLR,0.00,VWS V14.00,2013-02-04 15:09:00,
2013-02-04 10:14:00,26.1,-8.5,29.47,NW,314,3.6,8.1,21,0.00,,CLR,0.00,VWS V14.00,2013-02-04 15:14:00,
2013-02-04 10:19:00,25.9,-8.7,29.44,NNE,17,2.7,8.1,21,0.00,,CLR,0.00,VWS V14.00,2013-02-04 15:19:00,
2013-02-04 10:24:00,26.2,-8.4,29.44,SW,234,4.0,5.4,21,0.00,,CLR,0.00,VWS V14.00,2013-02-04 15:24:00,
2013-02-04 10:29:00,26.6,-8.1,29.44,NE,35,5.4,6.3,21,0.00,,CLR,0.00,VWS V14.00,2013-02-04 15:29:00,
2013-02-04 10:34:00,26.2,-8.4,29.47,WNW,294,3.1,6.3,21,0.00,,CLR,0.00,VWS V14.00,2013-02-04 15:34:00,
2013-02-04 10:39:00,26.4,-8.2,29.47,NW,321,3.6,6.3,21,0.00,,CLR,0.00,VWS V14.00,2013-02-04 15:39:00,
2013-02-04 10:44:00,26.8,-7.9,29.47,East,87,3.6,6.3,21,0.00,,CLR,0.00,VWS V14.00,2013-02-04 15:44:00,
2013-02-04 10:49:00,27.0,-7.8,29.47,WSW,254,0.0,6.3,21,0.00,,CLR,0.00,VWS V14.00,2013-02-04 15:49:00,
2013-02-04 10:54:00,27.9,-7.0,29.44,NE,41,2.7,6.3,21,0.00,,CLR,0.00,VWS V14.00,2013-02-04 15:54:00,
2013-02-04 10:59:00,27.9,-7.0,29.44,ENE,59,2.2,6.3,21,0.00,,CLR,0.00,VWS V14.00,2013-02-04 15:59:00,
2013-02-04 11:04:00,27.3,-7.4,29.44,NNE,21,8.1,8.1,21,0.00,,FEW048,0.00,VWS V14.00,2013-02-04 16:04:00,
2013-02-04 11:09:00,27.1,-7.6,29.44,East,86,2.2,14.5,21,0.00,,FEW048,0.00,VWS V14.00,2013-02-04 16:09:00,
2013-02-04 11:14:00,27.0,-7.8,29.44,ENE,67,2.2,14.5,21,0.00,,FEW048,0.00,VWS V14.00,2013-02-04 16:14:00,
2013-02-04 11:19:00,27.1,-7.6,29.44,SE,125,2.2,14.5,21,0.00,,FEW048,0.00,VWS V14.00,2013-02-04 16:19:00,
2013-02-04 11:24:00,27.1,-7.6,29.44,NW,316,4.9,4.9,21,0.00,,FEW048,0.00,VWS V14.00,2013-02-04 16:24:00,
2013-02-04 11:29:00,29.1,-6.9,29.44,WNW,298,3.6,4.9,20,0.00,,FEW048,0.00,VWS V14.00,2013-02-04 16:29:00,
2013-02-04 11:34:00,28.9,-7.1,29.44,NW,318,3.1,5.8,20,0.00,,FEW048,0.00,VWS V14.00,2013-02-04 16:34:00,
2013-02-04 11:39:00,28.9,-7.1,29.44,NNE,21,5.4,5.8,20,0.00,,FEW048,0.00,VWS V14.00,2013-02-04 16:39:00,
2013-02-04 11:44:00,29.3,-6.8,29.44,East,86,2.7,4.0,20,0.00,,FEW048,0.00,VWS V14.00,2013-02-04 16:44:00,
2013-02-04 11:49:00,29.3,-6.8,29.44,ESE,122,3.6,6.3,20,0.00,,FEW048,0.00,VWS V14.00,2013-02-04 16:49:00,
2013-02-04 11:54:00,29.1,-6.9,29.44,SW,225,2.7,6.3,20,0.00,,FEW048,0.00,VWS V14.00,2013-02-04 16:54:00,
2013-02-04 11:59:00,29.3,-6.8,29.44,North,353,0.0,6.3,20,0.00,,FEW048,0.00,VWS V14.00,2013-02-04 16:59:00,
2013-02-04 12:04:00,29.3,-6.8,29.44,SSE,152,5.8,5.8,20,0.00,,BKN050,0.00,VWS V14.00,2013-02-04 17:04:00,
2013-02-04 12:09:00,29.5,-6.6,29.44,North,5,4.0,5.8,20,0.00,,BKN050,0.00,VWS V14.00,2013-02-04 17:09:00,
2013-02-04 12:14:00,29.7,-6.5,29.44,NNE,25,3.6,5.8,20,0.00,,BKN050,0.00,VWS V14.00,2013-02-04 17:14:00,
2013-02-04 12:19:00,29.7,-6.5,29.44,East,85,5.4,8.1,20,0.00,,BKN050,0.00,VWS V14.00,2013-02-04 17:19:00,
2013-02-04 12:24:00,28.6,-7.4,29.44,SE,137,3.1,8.7,20,0.00,,BKN050,0.00,VWS V14.00,2013-02-04 17:24:00,
2013-02-04 12:30:00,28.8,-7.2,29.44,ENE,64,2.2,8.7,20,0.00,,BKN050,0.00,VWS V14.00,2013-02-04 17:30:00,
2013-02-04 12:34:00,28.6,-7.4,29.44,NNW,339,3.6,8.7,20,0.00,,BKN050,0.00,VWS V14.00,2013-02-04 17:34:00,
2013-02-04 12:40:00,28.6,-7.4,29.44,SSE,147,4.9,8.7,20,0.00,,BKN050,0.00,VWS V14.00,2013-02-04 17:40:00,
2013-02-04 12:45:00,28.6,-7.4,29.44,East,95,3.1,3.6,20,0.00,,BKN050,0.00,VWS V14.00,2013-02-04 17:45:00,
2013-02-04 12:50:00,29.1,-6.9,29.44,NNE,32,2.2,4.0,20,0.00,,BKN050,0.00,VWS V14.00,2013-02-04 17:50:00,
2013-02-04 12:55:00,28.9,-7.1,29.44,NNW,343,3.6,4.0,20,0.00,,BKN050,0.00,VWS V14.00,2013-02-04 17:55:00,
2013-02-04 13:00:00,28.9,-7.1,29.44,SE,143,2.2,4.9,20,0.00,,BKN050,0.00,VWS V14.00,2013-02-04 18:00:00,
2013-02-04 13:05:00,29.5,-6.6,29.44,ENE,70,2.7,5.4,20,0.00,,BKN050,0.00,VWS V14.00,2013-02-04 18:05:00,
2013-02-04 13:10:00,29.7,-6.5,29.44,ENE,70,2.7,5.4,20,0.00,,BKN050,0.00,VWS V14.00,2013-02-04 18:10:00,
2013-02-04 13:15:00,29.7,-6.5,29.44,NNE,17,3.1,5.4,20,0.00,,BKN050,0.00,VWS V14.00,2013-02-04 18:15:00,
2013-02-04 13:20:00,29.7,-6.5,29.44,NNE,22,3.1,5.4,20,0.00,,BKN050,0.00,VWS V14.00,2013-02-04 18:20:00,
2013-02-04 13:25:00,29.8,-6.3,29.44,NW,310,0.0,5.8,20,0.00,,BKN050,0.00,VWS V14.00,2013-02-04 18:25:00,
2013-02-04 13:30:00,29.5,-6.6,29.44,SSE,163,4.0,5.8,20,0.00,,BKN050,0.00,VWS V14.00,2013-02-04 18:30:00,
2013-02-04 13:35:00,29.5,-6.6,29.44,West,273,0.0,5.8,20,0.00,,BKN050,0.00,VWS V14.00,2013-02-04 18:35:00,
2013-02-04 13:40:00,28.6,-7.4,29.44,North,0,0.0,5.8,20,0.00,,BKN050,0.00,VWS V14.00,2013-02-04 18:40:00,
2013-02-04 13:45:00,28.6,-7.4,29.44,North,3,4.0,4.0,20,0.00,,BKN050,0.00,VWS V14.00,2013-02-04 18:45:00,
2013-02-04 13:50:00,28.8,-7.2,29.44,NW,318,2.2,4.0,20,0.00,,BKN050,0.00,VWS V14.00,2013-02-04 18:50:00,
2013-02-04 13:55:00,29.3,-6.8,29.44,SE,145,0.0,4.0,20,0.00,,BKN050,0.00,VWS V14.00,2013-02-04 18:55:00,
2013-02-04 14:00:00,29.8,-6.3,29.44,ENE,67,4.0,6.3,20,0.00,,BKN050,0.00,VWS V14.00,2013-02-04 19:00:00,
2013-02-04 14:05:00,29.8,-6.3,29.44,ESE,116,0.0,4.0,20,0.00,,BKN050,0.00,VWS V14.00,2013-02-04 19:05:00,
2013-02-04 14:10:00,29.8,-6.3,29.41,NE,48,5.4,5.4,20,0.00,,BKN050,0.00,VWS V14.00,2013-02-04 19:10:00,
2013-02-04 14:15:00,30.0,-6.2,29.41,NNW,345,3.6,5.4,20,0.00,,BKN050,0.00,VWS V14.00,2013-02-04 19:15:00,
2013-02-04 14:20:00,30.0,-6.2,29.41,ENE,77,3.6,6.7,20,0.00,,BKN050,0.00,VWS V14.00,2013-02-04 19:20:00,
2013-02-04 14:25:00,29.3,-6.8,29.41,ESE,114,3.1,3.6,20,0.00,,BKN050,0.00,VWS V14.00,2013-02-04 19:25:00,
2013-02-04 14:30:00,29.5,-6.6,29.41,South,190,0.0,3.6,20,0.00,,BKN050,0.00,VWS V14.00,2013-02-04 19:30:00,
2013-02-04 14:35:00,29.7,-6.5,29.41,WNW,298,3.1,4.0,20,0.00,,BKN050,0.00,VWS V14.00,2013-02-04 19:35:00,
2013-02-04 14:40:00,29.8,-6.3,29.41,SSE,149,6.3,6.3,20,0.00,,BKN050,0.00,VWS V14.00,2013-02-04 19:40:00,
2013-02-04 14:45:00,29.8,-6.3,29.41,NW,313,5.8,6.3,20,0.00,,BKN050,0.00,VWS V14.00,2013-02-04 19:45:00,
2013-02-04 14:50:00,29.1,-6.9,29.41,NE,46,2.7,6.3,20,0.00,,BKN050,0.00,VWS V14.00,2013-02-04 19:50:00,
2013-02-04 14:55:00,28.8,-7.2,29.41,ESE,108,2.7,6.3,20,0.00,,BKN050,0.00,VWS V14.00,2013-02-04 19:55:00,
2013-02-04 15:00:00,28.8,-7.2,29.41,NNW,329,0.0,0.0,20,0.00,,BKN050,0.00,VWS V14.00,2013-02-04 20:00:00,
2013-02-04 15:05:00,28.9,-7.1,29.41,NNE,26,3.1,4.9,20,0.00,,CLR,0.00,VWS V14.00,2013-02-04 20:05:00,
2013-02-04 15:10:00,28.9,-7.1,29.41,SE,142,5.8,5.8,20,0.00,,CLR,0.00,VWS V14.00,2013-02-04 20:10:00,
2013-02-04 15:15:00,28.9,-7.1,29.41,ESE,106,0.0,5.8,20,0.00,,CLR,0.00,VWS V14.00,2013-02-04 20:15:00,
2013-02-04 15:20:00,28.6,-7.4,29.41,SE,138,2.2,2.2,20,0.00,,CLR,0.00,VWS V14.00,2013-02-04 20:20:00,
2013-02-04 15:25:00,28.6,-7.4,29.41,NNE,18,4.0,4.0,20,0.00,,CLR,0.00,VWS V14.00,2013-02-04 20:25:00,
2013-02-04 15:30:00,28.6,-7.4,29.41,SE,134,4.0,5.8,20,0.00,,CLR,0.00,VWS V14.00,2013-02-04 20:30:00,
2013-02-04 15:35:00,28.6,-7.4,29.41,SE,133,3.1,5.8,20,0.00,,CLR,0.00,VWS V14.00,2013-02-04 20:35:00,
2013-02-04 15:40:00,28.6,-7.4,29.41,North,0,0.0,0.0,20,0.00,,CLR,0.00,VWS V14.00,2013-02-04 20:40:00,
2013-02-04 15:45:00,28.6,-7.4,29.41,North,9,2.2,4.0,20,0.00,,CLR,0.00,VWS V14.00,2013-02-04 20:45:00,
2013-02-04 15:50:00,28.6,-7.4,29.41,ENE,78,2.7,4.0,20,0.00,,CLR,0.00,VWS V14.00,2013-02-04 20:50:00,
2013-02-04 15:55:00,28.6,-7.4,29.41,SE,132,0.0,4.0,20,0.00,,CLR,0.00,VWS V14.00,2013-02-04 20:55:00,
2013-02-04 16:00:00,28.4,-6.5,29.41,NE,42,2.7,2.7,21,0.00,,CLR,0.00,VWS V14.00,2013-02-04 21:00:00,
2013-02-04 16:05:00,28.2,-6.7,29.41,North,353,2.7,4.0,21,0.00,,CLR,0.00,VWS V14.00,2013-02-04 21:05:00,
2013-02-04 16:10:00,28.0,-6.8,29.41,North,353,4.9,4.9,21,0.00,,CLR,0.00,VWS V14.00,2013-02-04 21:10:00,
2013-02-04 16:15:00,27.9,-7.0,29.41,East,87,4.0,4.9,21,0.00,,CLR,0.00,VWS V14.00,2013-02-04 21:15:00,
2013-02-04 16:20:00,27.9,-7.0,29.41,ENE,65,3.6,3.6,21,0.00,,CLR,0.00,VWS V14.00,2013-02-04 21:20:00,
2013-02-04 16:25:00,27.3,-7.4,29.41,NW,321,0.0,3.6,21,0.00,,CLR,0.00,VWS V14.00,2013-02-04 21:25:00,
2013-02-04 16:30:00,27.1,-7.6,29.41,NNE,13,2.7,3.6,21,0.00,,CLR,0.00,VWS V14.00,2013-02-04 21:30:00,
2013-02-04 16:35:00,27.1,-7.6,29.41,ESE,113,2.2,3.6,21,0.00,,CLR,0.00,VWS V14.00,2013-02-04 21:35:00,
2013-02-04 16:40:00,27.1,-7.6,29.41,NNE,14,2.2,3.6,21,0.00,,CLR,0.00,VWS V14.00,2013-02-04 21:40:00,
2013-02-04 16:45:00,27.1,-7.6,29.41,ENE,65,4.9,4.9,21,0.00,,CLR,0.00,VWS V14.00,2013-02-04 21:45:00,
2013-02-04 16:50:00,27.0,-7.8,29.44,WNW,294,5.4,5.4,21,0.00,,CLR,0.00,VWS V14.00,2013-02-04 21:50:00,
2013-02-04 16:55:00,27.0,-7.8,29.44,SE,143,2.7,5.8,21,0.00,,CLR,0.00,VWS V14.00,2013-02-04 21:55:00,
2013-02-04 17:00:00,27.0,-7.8,29.44,NW,311,0.0,5.8,21,0.00,,CLR,0.00,VWS V14.00,2013-02-04 22:00:00,
2013-02-04 17:05:00,26.8,-7.9,29.44,NNE,29,2.2,2.2,21,0.00,,CLR,0.00,VWS V14.00,2013-02-04 22:05:00,
2013-02-04 17:10:00,26.6,-8.1,29.44,NW,307,3.1,3.1,21,0.00,,CLR,0.00,VWS V14.00,2013-02-04 22:10:00,
2013-02-04 17:15:00,26.6,-8.1,29.44,NE,50,2.2,3.6,21,0.00,,CLR,0.00,VWS V14.00,2013-02-04 22:15:00,
2013-02-04 17:20:00,26.4,-8.2,29.44,SSE,164,0.0,3.6,21,0.00,,CLR,0.00,VWS V14.00,2013-02-04 22:20:00,
2013-02-04 17:25:00,26.2,-8.4,29.44,SE,134,3.6,3.6,21,0.00,,CLR,0.00,VWS V14.00,2013-02-04 22:25:00,
2013-02-04 17:30:00,26.2,-8.4,29.44,ENE,75,2.7,4.9,21,0.00,,CLR,0.00,VWS V14.00,2013-02-04 22:30:00,
2013-02-04 17:35:00,26.1,-8.5,29.44,SE,134,3.6,4.9,21,0.00,,CLR,0.00,VWS V14.00,2013-02-04 22:35:00,
2013-02-04 17:40:00,26.1,-8.5,29.44,NNE,12,0.0,4.9,21,0.00,,CLR,0.00,VWS V14.00,2013-02-04 22:40:00,
2013-02-04 17:45:00,25.9,-8.7,29.44,NNW,339,2.7,2.7,21,0.00,,CLR,0.00,VWS V14.00,2013-02-04 22:45:00,
2013-02-04 17:50:00,25.9,-8.7,29.44,East,92,0.0,4.0,21,0.00,,CLR,0.00,VWS V14.00,2013-02-04 22:50:00,
2013-02-04 17:55:00,25.9,-8.7,29.44,NE,54,0.0,4.9,21,0.00,,CLR,0.00,VWS V14.00,2013-02-04 22:55:00,
2013-02-04 18:00:00,25.9,-8.7,29.44,ESE,115,0.0,4.9,21,0.00,,CLR,0.00,VWS V14.00,2013-02-04 23:00:00,
2013-02-04 18:05:00,25.9,-8.7,29.44,NE,49,3.1,3.1,21,0.00,,CLR,0.00,VWS V14.00,2013-02-04 23:05:00,
2013-02-04 18:10:00,25.9,-8.7,29.44,ESE,122,2.7,3.1,21,0.00,,CLR,0.00,VWS V14.00,2013-02-04 23:10:00,
2013-02-04 18:15:00,25.9,-8.7,29.44,SE,125,3.6,3.6,21,0.00,,CLR,0.00,VWS V14.00,2013-02-04 23:15:00,
2013-02-04 18:20:00,25.9,-8.7,29.44,North,357,3.1,5.8,21,0.00,,CLR,0.00,VWS V14.00,2013-02-04 23:20:00,
2013-02-04 18:26:00,25.9,-8.7,29.44,North,357,3.1,3.1,21,0.00,,CLR,0.00,VWS V14.00,2013-02-04 23:26:00,
2013-02-04 18:31:00,25.7,-8.8,29.44,NNW,331,2.7,3.1,21,0.00,,CLR,0.00,VWS V14.00,2013-02-04 23:31:00,
2013-02-04 18:36:00,25.7,-8.8,29.47,SSE,168,0.0,3.6,21,0.00,,CLR,0.00,VWS V14.00,2013-02-04 23:36:00,
2013-02-04 18:41:00,25.5,-9.0,29.47,WNW,297,0.0,3.6,21,0.00,,CLR,0.00,VWS V14.00,2013-02-04 23:41:00,
2013-02-04 18:46:00,25.5,-9.0,29.47,NE,40,0.0,2.7,21,0.00,,CLR,0.00,VWS V14.00,2013-02-04 23:46:00,
2013-02-04 18:51:00,25.5,-9.0,29.47,SE,137,3.1,3.1,21,0.00,,CLR,0.00,VWS V14.00,2013-02-04 23:51:00,
2013-02-04 18:56:00,25.5,-9.0,29.47,North,4,0.0,3.1,21,0.00,,CLR,0.00,VWS V14.00,2013-02-04 23:56:00,
2013-02-04 19:01:00,25.5,-9.0,29.47,SE,128,0.0,0.0,21,0.00,,CLR,0.00,VWS V14.00,2013-02-05 00:01:00,
2013-02-04 19:06:00,25.7,-8.8,29.47,SSE,153,3.1,3.1,21,0.00,,FEW110,0.00,VWS V14.00,2013-02-05 00:06:00,
2013-02-04 19:11:00,25.7,-8.8,29.47,SE,125,0.0,3.1,21,0.00,,FEW110,0.00,VWS V14.00,2013-02-05 00:11:00,
2013-02-04 19:16:00,25.7,-8.8,29.47,WSW,257,5.8,5.8,21,0.00,,FEW110,0.00,VWS V14.00,2013-02-05 00:16:00,
2013-02-04 19:21:00,25.7,-8.8,29.47,SSE,147,0.0,0.0,21,0.00,,FEW110,0.00,VWS V14.00,2013-02-05 00:21:00,
2013-02-04 19:26:00,25.7,-8.8,29.47,SSE,147,0.0,0.0,21,0.00,,FEW110,0.00,VWS V14.00,2013-02-05 00:26:00,
2013-02-04 19:31:00,25.7,-8.8,29.47,SSE,147,0.0,0.0,21,0.00,,FEW110,0.00,VWS V14.00,2013-02-05 00:31:00,
2013-02-04 19:36:00,25.5,-9.0,29.47,SSE,147,0.0,0.0,21,0.00,,FEW110,0.00,VWS V14.00,2013-02-05 00:36:00,
2013-02-04 19:41:00,25.5,-9.0,29.47,SE,139,0.0,0.0,21,0.00,,FEW110,0.00,VWS V14.00,2013-02-05 00:41:00,
2013-02-04 19:46:00,25.5,-9.0,29.47,SSE,149,0.0,2.7,21,0.00,,FEW110,0.00,VWS V14.00,2013-02-05 00:46:00,
2013-02-04 19:51:00,25.5,-9.0,29.47,SSE,147,4.9,4.9,21,0.00,,FEW110,0.00,VWS V14.00,2013-02-05 00:51:00,
2013-02-04 19:56:00,25.5,-9.0,29.47,SSE,164,2.2,4.9,21,0.00,,FEW110,0.00,VWS V14.00,2013-02-05 00:56:00,
2013-02-04 20:01:00,25.5,-9.0,29.47,SSE,161,0.0,2.2,21,0.00,,FEW110,0.00,VWS V14.00,2013-02-05 01:01:00,
2013-02-04 20:06:00,25.5,-9.0,29.47,SSE,161,0.0,2.2,21,0.00,,CLR,0.00,VWS V14.00,2013-02-05 01:06:00,
2013-02-04 20:11:00,25.3,-9.1,29.47,WNW,290,0.0,2.2,21,0.00,,CLR,0.00,VWS V14.00,2013-02-05 01:11:00,
2013-02-04 20:16:00,25.2,-9.3,29.47,SSE,147,2.7,2.7,21,0.00,,CLR,0.00,VWS V14.00,2013-02-05 01:16:00,
2013-02-04 20:21:00,25.2,-9.3,29.47,SSE,147,0.0,0.0,21,0.00,,CLR,0.00,VWS V14.00,2013-02-05 01:21:00,
2013-02-04 20:26:00,25.2,-9.3,29.47,SE,142,0.0,3.1,21,0.00,,CLR,0.00,VWS V14.00,2013-02-05 01:26:00,
2013-02-04 20:31:00,25.2,-9.3,29.47,SE,142,0.0,3.1,21,0.00,,CLR,0.00,VWS V14.00,2013-02-05 01:31:00,
2013-02-04 20:36:00,25.2,-9.3,29.47,SE,142,0.0,3.1,21,0.00,,CLR,0.00,VWS V14.00,2013-02-05 01:36:00,
2013-02-04 20:41:00,24.8,-8.6,29.47,SE,142,0.0,0.0,22,0.00,,CLR,0.00,VWS V14.00,2013-02-05 01:41:00,
2013-02-04 20:46:00,24.6,-8.8,29.47,SE,142,0.0,0.0,22,0.00,,CLR,0.00,VWS V14.00,2013-02-05 01:46:00,
2013-02-04 20:51:00,24.4,-8.9,29.47,SE,142,0.0,0.0,22,0.00,,CLR,0.00,VWS V14.00,2013-02-05 01:51:00,
2013-02-04 20:56:00,24.4,-8.9,29.47,SE,142,0.0,0.0,22,0.00,,CLR,0.00,VWS V14.00,2013-02-05 01:56:00,
2013-02-04 21:01:00,24.3,-9.1,29.47,SE,142,0.0,0.0,22,0.00,,BKN100,0.00,VWS V14.00,2013-02-05 02:01:00,
2013-02-04 21:06:00,24.1,-9.2,29.47,SE,142,0.0,0.0,22,0.00,,BKN100,0.00,VWS V14.00,2013-02-05 02:06:00,
2013-02-04 21:11:00,24.1,-9.2,29.47,SE,142,0.0,0.0,22,0.00,,BKN100,0.00,VWS V14.00,2013-02-05 02:11:00,
2013-02-04 21:16:00,23.7,-9.6,29.47,SE,142,0.0,0.0,22,0.00,,BKN100,0.00,VWS V14.00,2013-02-05 02:16:00,
2013-02-04 21:21:00,23.7,-9.6,29.47,SE,142,0.0,0.0,22,0.00,,BKN100,0.00,VWS V14.00,2013-02-05 02:21:00,
2013-02-04 21:26:00,23.7,-9.6,29.47,SE,142,0.0,0.0,22,0.00,,BKN100,0.00,VWS V14.00,2013-02-05 02:26:00,
2013-02-04 21:31:00,23.7,-9.6,29.47,SE,142,0.0,0.0,22,0.00,,BKN100,0.00,VWS V14.00,2013-02-05 02:31:00,
2013-02-04 21:36:00,23.7,-9.6,29.47,SE,142,0.0,0.0,22,0.00,,BKN100,0.00,VWS V14.00,2013-02-05 02:36:00,
2013-02-04 21:41:00,23.9,-9.4,29.47,SE,142,0.0,0.0,22,0.00,,BKN100,0.00,VWS V14.00,2013-02-05 02:41:00,
2013-02-04 21:46:00,23.9,-9.4,29.47,SE,142,0.0,0.0,22,0.00,,BKN100,0.00,VWS V14.00,2013-02-05 02:46:00,
2013-02-04 21:51:00,23.9,-9.4,29.47,SE,142,0.0,0.0,22,0.00,,BKN100,0.00,VWS V14.00,2013-02-05 02:51:00,
2013-02-04 21:56:00,23.9,-9.4,29.47,SE,142,0.0,0.0,22,0.00,,BKN100,0.00,VWS V14.00,2013-02-05 02:56:00,
2013-02-04 22:01:00,23.7,-9.6,29.47,SE,142,0.0,0.0,22,0.00,,OVC095,0.00,VWS V14.00,2013-02-05 03:01:00,
2013-02-04 22:06:00,23.5,-9.7,29.47,SE,142,0.0,0.0,22,0.00,,OVC095,0.00,VWS V14.00,2013-02-05 03:06:00,
2013-02-04 22:11:00,23.7,-9.6,29.47,SE,142,0.0,0.0,22,0.00,,OVC095,0.00,VWS V14.00,2013-02-05 03:11:00,
2013-02-04 22:16:00,23.7,-9.6,29.47,SE,142,0.0,0.0,22,0.00,,OVC095,0.00,VWS V14.00,2013-02-05 03:16:00,
2013-02-04 22:21:00,23.7,-9.6,29.47,SE,142,0.0,0.0,22,0.00,,OVC095,0.00,VWS V14.00,2013-02-05 03:21:00,
2013-02-04 22:26:00,23.5,-9.7,29.47,SE,142,0.0,0.0,22,0.00,,OVC095,0.00,VWS V14.00,2013-02-05 03:26:00,
2013-02-04 22:31:00,23.5,-9.7,29.47,SE,142,0.0,0.0,22,0.00,,OVC095,0.00,VWS V14.00,2013-02-05 03:31:00,
2013-02-04 22:36:00,23.5,-9.7,29.47,SE,142,0.0,0.0,22,0.00,,OVC095,0.00,VWS V14.00,2013-02-05 03:36:00,
2013-02-04 22:41:00,23.5,-9.7,29.47,SE,142,0.0,0.0,22,0.00,,OVC095,0.00,VWS V14.00,2013-02-05 03:41:00,
2013-02-04 22:46:00,23.5,-9.7,29.47,SE,142,0.0,0.0,22,0.00,,OVC095,0.00,VWS V14.00,2013-02-05 03:46:00,
2013-02-04 22:51:00,23.5,-9.7,29.47,SE,142,0.0,0.0,22,0.00,,OVC095,0.00,VWS V14.00,2013-02-05 03:51:00,
2013-02-04 22:56:00,23.5,-9.7,29.47,SE,142,0.0,0.0,22,0.00,,OVC095,0.00,VWS V14.00,2013-02-05 03:56:00,
2013-02-04 23:01:00,23.5,-9.7,29.47,SE,142,0.0,0.0,22,0.00,,OVC090,0.00,VWS V14.00,2013-02-05 04:01:00,
2013-02-04 23:06:00,23.5,-9.7,29.47,SE,142,0.0,0.0,22,0.00,,OVC090,0.00,VWS V14.00,2013-02-05 04:06:00,
2013-02-04 23:11:00,23.7,-9.6,29.47,SE,142,0.0,0.0,22,0.00,,OVC090,0.00,VWS V14.00,2013-02-05 04:11:00,
2013-02-04 23:17:00,23.7,-9.6,29.47,SE,142,0.0,0.0,22,0.00,,OVC090,0.00,VWS V14.00,2013-02-05 04:17:00,
2013-02-04 23:22:00,23.7,-9.6,29.47,SE,142,0.0,0.0,22,0.00,,OVC090,0.00,VWS V14.00,2013-02-05 04:22:00,
2013-02-04 23:27:00,23.9,-9.4,29.47,SE,142,0.0,0.0,22,0.00,,OVC090,0.00,VWS V14.00,2013-02-05 04:27:00,
2013-02-04 23:32:00,23.9,-9.4,29.47,SE,142,0.0,0.0,22,0.00,,OVC090,0.00,VWS V14.00,2013-02-05 04:32:00,
2013-02-04 23:37:00,23.9,-9.4,29.47,SE,142,0.0,0.0,22,0.00,,OVC090,0.00,VWS V14.00,2013-02-05 04:37:00,
2013-02-04 23:42:00,24.1,-9.2,29.47,SE,142,0.0,0.0,22,0.00,,OVC090,0.00,VWS V14.00,2013-02-05 04:42:00,
2013-02-04 23:47:00,24.1,-9.2,29.47,SE,142,0.0,0.0,22,0.00,,OVC090,0.00,VWS V14.00,2013-02-05 04:47:00,
2013-02-04 23:52:00,24.1,-9.2,29.44,SE,142,0.0,0.0,22,0.00,,OVC090,0.00,VWS V14.00,2013-02-05 04:52:00,
2013-02-04 23:57:00,24.1,-9.2,29.44,SE,142,0.0,0.0,22,0.00,,OVC090,0.00,VWS V14.00,2013-02-05 04:57:00,